Other Public Products
Issued by NWS Grand Forks, ND

Home | Current Version | Previous Version | Text Only | Print | Product List | Glossary On
Versions: 1 2 3 4 5 6 7 8 9 10 11 12 13 14 15 16 17 18 19 20 21 22 23 24 25 26 27 28 29 30 31 32 33 34 35 36 37 38 39 40 41 42 43 44 45 46 47 48 49 50
000
FPUS83 KFGF 232231
OPUFGF
PRAIRIE TO PINES WEATHER ROUNDUP
NATIONAL WEATHER SERVICE EASTERN NORTH DAKOTA/GRAND FORKS ND
400 PM CST THU NOV 23 2017

 **SATELLITE DATA USED TO AUGMENT SKY COVER AT AUTOMATED STATIONS**
 *****  WEATHER ACROSS EASTERN NORTH DAKOTA  *****

CITY           SKY/WX    TMP DP  RH WIND       PRES   REMARKS
GRAND FORKS    FAIR      39  32  76 S13       29.54F
GRND FORKS AFB FAIR      38  31  76 S9        29.53F
GRND FORKS NWS   N/A     36 N/A N/A S14         N/A
BUXTON           N/A     39  29  67 SE9         N/A
DEVILS LAKE    FAIR      42  36  79 S8        29.49F
FARGO          FAIR      47  30  51 S13       29.60F
WAHPETON ARPT  NOT AVBL
$$

 *****  WEATHER ACROSS CENTRAL AND WESTERN NORTH DAKOTA  *****

CITY           SKY/WX    TMP DP  RH WIND       PRES   REMARKS
JAMESTOWN      FAIR      58  41  53 SW10      29.55F
BISMARCK       FAIR      72  39  30 W15       29.56F
MINOT          FAIR      62  41  46 SW13      29.43F
MINOT AFB      FAIR      63  41  43 SW15      29.40F
GARRISON         N/A     57  40  52 SW12      29.50F
WILLISTON      FAIR      66  38  35 SW10      29.47F
DICKINSON      FAIR      67  36  31 W20       29.56F
HETTINGER      FAIR      72  34  24 W17       29.65F
$$

 *****  OTHER OBSERVATIONS NORTHEAST NORTH DAKOTA  *****

CITY           SKY/WX    TMP DP  RH WIND       PRES   REMARKS
WALHALLA       FAIR      32  32 100 S13       29.47F WCI  22
LANGDON        FAIR      36  36 100 S13       29.44F
CAVALIER       MOCLDY    30  30 100 S15       29.48F WCI  19
GRAFTON        FAIR      32  32 100 S13       29.53F WCI  22
CANDO          FAIR      39  36  87 S9        29.46F
FORT TOTTEN      N/A     47  38  71 S7        29.95S
ROLLA          FAIR      41  36  81 SW14      29.41F
RUGBY          FAIR      46  39  76 S7        29.43F
 ***** THE ABOVE OBSERVATIONS ARE NON NWS ARE NOT QUALITY
        CONTROLLED AND MAY MIS-REPORT RAIN FOR SNOW...
$$

 *****  OTHER OBSERVATIONS SOUTHEAST NORTH DAKOTA *****

CITY           SKY/WX    TMP DP  RH WIND       PRES   REMARKS
COOPERSTOWN    FAIR      45  37  76 S13       29.53F
VALLEY CITY    FAIR      54  41  62 SW15      29.56F
OAKES            N/A     54  39  58 S16       29.60F
GWINNER          N/A     54  37  54 SW15      29.59F
SHEYENNE NWR     N/A     52  36  55 SW9       29.95S
BUFFALO          N/A     44  28  53 SE12        N/A
WYNDMERE       NOT AVBL
 ***** THE ABOVE OBSERVATIONS ARE NON NWS ARE NOT QUALITY
       CONTROLLED AND MAY MIS-REPORT RAIN FOR SNOW...
$$

  *****  WEATHER ACROSS NORTHERN MINNESOTA  *****

CITY           SKY/WX    TMP DP  RH WIND       PRES   REMARKS
FLAG ISLAND    MOCLDY    28  21  74 SE10      29.55F WCI  19
WARROAD        CLOUDY    30  27  86 S12       29.57F WCI  21
ROSEAU         CLOUDY    32  27  80 S13       29.57F WCI  22
HALLOCK        FAIR      32  30  93 S15       29.51F WCI  22
THF RVR FALLS  FAIR      31  30  96 SE10      29.59F WCI  22
HALSTAD          N/A     39  28  65 S12         N/A
FOSSTON        FAIR      36  30  80 S12       29.60F
BAUDETTE       MOCLDY    27  24  89 SE13      29.60F WCI  16
WASKISH        MOCLDY    30  27  86 SE6       29.60F WCI  24
CROOKSTON      FAIR      37  30  75 S13       29.57F
$$
  *****  WEATHER ACROSS CENTRAL AND WEST MINNESOTA  *****

CITY           SKY/WX    TMP DP  RH WIND       PRES   REMARKS
BEMIDJI        FAIR      33  28  80 S6        29.62F
PARK RAPIDS    FAIR      42  30  62 S10       29.64F
WADENA         FAIR      39  28  65 S6        29.66F
DETROIT LAKES  FAIR      41  30  65 S6        29.64F
MOORHEAD       FAIR      45  28  53 S14       29.61F
FERGUS FALLS   FAIR      43  28  56 S13       29.66F
ELBOW LAKE     FAIR      43  30  60 S16       29.66F
MORRIS MN      FAIR      45  30  57 SE13      29.68F
STAPLES        FAIR      39  27  60 S9        29.68S
WHEATON        FAIR      48  32  53 S8        29.67F
$$
  *****  WEATHER ELSEWHERE ACROSS MINNESOTA  *****

CITY           SKY/WX    TMP DP  RH WIND       PRES   REMARKS
DULUTH         MOCLDY    34  25  69 SW8       29.73F
INTRNTL FALLS  CLOUDY    31  21  66 SE7       29.65F WCI  24
ELY            MOCLDY    30  21  69 SE5       29.68F
CLOQUET        CLOUDY    36  23  60 S3        29.72F
BRAINERD       FAIR      41  27  57 S9        29.71F
HIBBING        CLOUDY    34  24  67 S6        29.69F
ALEXANDRIA     FAIR      43  28  55 S13       29.70F
SAINT CLOUD    MOCLDY    42  26  53 S8        29.75F
MINNEAPOLIS    FAIR      45  26  47 SW7       29.82F
$$

  *****  WEATHER ACROSS SOUTH DAKOTA  *****

CITY           SKY/WX    TMP DP  RH WIND       PRES   REMARKS
SIOUX FALLS    MOCLDY    57  39  51 S12       29.77F
BROOKINGS      FAIR      53  37  54 S10       29.75S
WATERTOWN      FAIR      50  37  61 S10       29.70F
HURON          FAIR      58  41  53 S5        29.72S
SISSETON         N/A     56  38  50 SW20      29.63F
ABERDEEN       FAIR      55  39  54 S12       29.66F
MITCHELL       FAIR      64  42  44 S7        29.74F
PIERRE         FAIR      67  42  40 S6        29.69F
MOBRIDGE       FAIR      63  41  44 SE7       29.61F
RAPID CITY     FAIR      72  35  25 S8        29.74F
$$

  *****  SOME WEATHER IN NEARBY STATES *****

CITY           SKY/WX    TMP DP  RH WIND       PRES   REMARKS
GLASGOW MT     FAIR      71  36  27 W26G35    29.49F
GREAT FALLS MT FAIR      60  40  47 W28G43    29.60F
CHEYENNE WY    FAIR      63  29  27 W21G30    30.04F
SCOTTSBLUFF NE FAIR      67  36  31 NW7       29.90F
OMAHA NE       FAIR      60  38  43 SE9       29.88F
DES MOINES IA  FAIR      53  32  44 SW5       29.91S
DAVENPORT IA   FAIR      47  27  45 W8        29.94R
CHICAGO IL     FAIR      44  25  47 W8        29.91S
EAU CLAIRE WI  FAIR      41  20  43 S5        29.82F
LA CROSSE WI   FAIR      44  23  43 SE7       29.86F
$$

  *****  SOME NATIONAL WEATHER *****

CITY           SKY/WX    TMP DP  RH WIND       PRES   REMARKS
LA GUARDIA NY  FAIR      43  18  36 W5        30.01S
RALEIGH NC     MOCLDY    45  30  55 CALM      30.06S
ATLANTA GA     FAIR      58  41  53 E6        29.99R
NEW ORLEANS LA FAIR      63  31  30 N9        30.01S
OKLAHOMA CITY  PTSUNNY   69  31  24 S6        30.00F
ALBUQUERQUE NM PTSUNNY   66  31  27 CALM      30.21F
SALT LAKE CITY PTSUNNY   62  44  51 W3        30.14F
LOS ANGELES CA FAIR      82  42  24 W13       29.93F
BOISE ID       FAIR      64  46  52 SE10      29.97F
SEATTLE WA     PTSUNNY   54  48  80 SW15G24   29.84S
$$

*** WEATHER ACROSS MANITOBA...SASKATCHEWAN AND ONTARIO ***
                ***ONTARIO***

CITY           SKY/WX    TMP DP  RH WIND       PRES   REMARKS
GERALDTON      MOCLDY    12   7  79 N2        29.77R
THUNDER BAY    MOCLDY    30  21  69 SE2       29.77F
SIOUX LOOKOUT  LGT SNOW  19  14  79 SE6       29.63F WCI  11
TORONTO        CLOUDY    37  18  44 W13       29.91S
BIG TROUT LK   CLEAR      0  -4  85 S2        29.68F
PICKLE LAKE    FLURRIES   7   1  78 S5        29.69  WCI  -2
DRYDEN         FLURRIES  23  19  86 SE7       29.63F WCI  15
KENORA         CLOUDY    25  19  80 S12       29.57F WCI  14
$$
                *** MANITOBA***

CITY           SKY/WX    TMP DP  RH WIND       PRES   REMARKS
BRANDON        MOCLDY    34  28  80 SE5       29.37F
DAUPHIN        CLOUDY    25  21  86 SE10      29.34F WCI  15
ISLAND LAKE    LGT SNOW   9   3  78 S8        29.59F WCI  -4
PILOT MOUND      N/A     34  34 100 S13         N/A  WCI  25
THE PAS        FLURRIES  12   7  79 SE18G25   29.29  WCI  -5
THOMPSON       LGT SNOW   1  -4  78 SE5       29.50F VSB 3/4 WCI  -8
WINNIPEG       CLOUDY    30  28  93 S18       29.47F FOG     WCI  18
LYNN LAKE      LGT SNOW   0  -2  92 SE10G17   29.32F WCI -17
CHURCHILL      PTCLDY    -4 -11  71 W12       29.54F WCI -22
GILLAM         MOCLDY    -2 -11  65 S5        29.59  WCI -12
$$
                ***SASKATCHEWAN***

CITY           SKY/WX    TMP DP  RH WIND       PRES   REMARKS
ESTEVAN        PTCLDY    57  41  54 SW16G23   29.38F
KINDERSLEY     MOCLDY    37  34  87 NW12      29.39R
LLOYDMINSTER   MOCLDY    37  34  87 W16       29.25F
PRINCE ALBERT  CLOUDY    23  19  86 W10       29.27R WCI  12
REGINA         MOCLDY    45  37  76 W10       29.30F
YORKTON        CLEAR     30  28  93 S8        29.22F WC


USA.gov is the U.S. government's official web portal to all federal, state and local government web resources and services.